Location: Gu�tanj
(46.5431°N, 14.9692°E)
Time: 12:57:06
(UTC+00:00)

BREEZE-M DEB (TANK) - Pass Details

Date: 03 March 2021
Orbit: 308 x 15402 km, 49.5° (Epoch: 19 April)

Event Time Altitude Azimuth Distance (km) Brightness Sun altitude
Rises 19:33:25 0° 288° (WNW) 2,263 6.7 -28.5°
Reaches altitude 10° 19:34:45 10° 291° (WNW) 1,617 5.7 -28.8°
Enters shadow 19:36:45 47° 302° (WNW) 845 3.5 -29.1°
